Regional Weather Roundup
Issued by NWS

Home | Current Version | Previous Version | Text Only | Print | Product List | Glossary On
Versions: 1 2 3 4 5 6 7 8 9 10 11 12 13 14 15 16 17 18 19 20 21 22 23 24 25 26 27 28 29 30 31 32 33 34 35 36 37 38 39 40 41 42 43 44 45 46 47 48 49 50
000
ASUS43 KDTX 271410
RWRMI
MICHIGAN HOURLY REGIONAL WEATHER ROUNDUP
NATIONAL WEATHER SERVICE DETROIT/PONTIAC MI
1000 AM EDT SAT MAY 27 2017

NOTE: "FAIR" INDICATES FEW OR NO CLOUDS BELOW 12,000 FEET WITH NO
SIGNIFICANT WEATHER AND/OR OBSTRUCTION TO VISIBILITY.

MIZ047>049-052>055-059>063-066>070-074>076-081>083-271500-
SOUTHEAST LOWER MICHIGAN

CITY           SKY/WX    TMP DP  RH WIND       PRES   REMARKS
ADRIAN         SUNNY     66  60  81 E6        29.90R
ALMA           SUNNY     67  58  72 W8        29.93R
ANN ARBOR      MOSUNNY   67  59  75 SE6       29.89S
BAD AXE        SUNNY     64  56  76 CALM      29.93R
CARO           SUNNY     67  56  67 CALM      29.91R
DETROIT CITY   SUNNY     66  55  67 SE7       29.90F
DETROIT        MOSUNNY   68  56  65 E6        29.90F
FLINT          SUNNY     68  55  63 S5        29.90S
GROSSE ILE     SUNNY     67  58  74 E5        29.89S
HILLSDALE      SUNNY     64  59  82 E8        29.89S
HOWELL         SUNNY     67  53  61 SE3       29.90S

CITY           SKY/WX    TMP DP  RH WIND       PRES   REMARKS
JACKSON        SUNNY     67  57  70 SE9       29.90R
LAMBERTVILLE   PTSUNNY   65  60  82 E7        29.89S
LANSING        SUNNY     69  53  56 CALM      29.91R
LAPEER         FAIR      67  55  65 CALM      29.91S
MASON          MOSUNNY   67  58  72 CALM      29.91R
MONROE         SUNNY     67  57  71 SE6       29.89S
MT. CLEMENS    MOSUNNY   64  60  88 VRB5      29.90R
PONTIAC        MOSUNNY   66  55  67 S6        29.89S
PORT HOPE        N/A     53  51  93 E9        29.92R
PORT HURON     MOSUNNY   64  54  68 CALM      29.92R
TRI CITIES     SUNNY     68  57  68 NW3       29.92R
MIDLAND        FAIR      68  55  64 NW3       29.92R
TROY           SUNNY     67  54  61 SE3       29.91S
SAGINAW HB     SUNNY     70  52  52 CALM      29.90R
$$
MIZ043>046-050>051-056>058-064>065-071>073-077>080-271500-
SOUTHWEST LOWER MICHIGAN

CITY           SKY/WX    TMP DP  RH WIND       PRES   REMARKS
BATTLE CREEK   MOSUNNY   68  58  70 CALM      29.91R
BENTON HARBOR  CLOUDY    62  58  86 NW3       29.93R
BIG RAPIDS     SUNNY     66  54  64 NE3       29.92S
COLDWATER      PTSUNNY   67  59  75 E6        29.90R
FREMONT        FAIR      65  53  66 N5        29.92S
HOLLAND        SUNNY     68  56  65 NE5       29.93R
GRAND RAPIDS   MOSUNNY   69  58  67 CALM      29.92R
IONIA          FAIR      68  53  60 NW3       29.91R
KALAMAZOO      PTSUNNY   66  58  75 NW6       29.91R
LUDINGTON      SUNNY     64  55  74 SW3       29.91S
MARSHALL       SUNNY     67  58  72 CALM      29.90R
MOUNT PLEASANT SUNNY     64  57  78 CALM      29.92R
MUSKEGON       MOSUNNY   67  54  63 CALM      29.92S
SOUTH HAVEN    SUNNY     65  60  85 CALM      29.93R
$$
MIZ016>042-271500-
NORTHERN LOWER MICHIGAN

CITY           SKY/WX    TMP DP  RH WIND       PRES   REMARKS
ALPENA         SUNNY     65  54  67 CALM      29.92S
BEAVER ISLAND  MOSUNNY   65  52  62 CALM      29.90F
BELLAIRE       CLOUDY    61  52  72 CALM      29.92F
CADILLAC       SUNNY     68  53  58 W3        29.92S
CHARLEVOIX     CLOUDY    60  54  82 E6        29.94F
FRANKFORT      MOSUNNY   64  51  61 CALM      29.91S
GAYLORD        CLOUDY    64  53  67 SW5       29.93R
GRAYLING       CLOUDY    65  55  68 CALM      29.94R
HARBOR SPRINGS CLOUDY    59  54  85 CALM      29.92S
HOUGHTON LAKE  PTSUNNY   63  55  75 W5        29.93R
MANISTEE       SUNNY     67  53  61 VRB3      29.90F
OSCODA         SUNNY     65  52  64 CALM      29.93R
PELLSTON       CLOUDY    61  52  72 SE3       29.92S
ROGERS CITY    CLOUDY    60  55  83 CALM      29.93S
TRAVERSE CITY  PTSUNNY   63  53  70 NE5       29.90S
$$
MIZ007>008-015-271500-
EASTERN UPPER MICHIGAN

CITY           SKY/WX    TMP DP  RH WIND       PRES   REMARKS
KINROSS        CLOUDY    62  51  67 S5        29.92R
MACKINAC ISLAN MOSUNNY   60  51  71 CALM      29.92R
NEWBERRY       MOSUNNY   63  52  67 S8        29.89S
S. S. MARIE    PTSUNNY   62  53  72 CALM      29.90S
MUNISING         N/A     65  56  72 S9        29.83F
$$
MIZ004>006-011>014-085-271500-
CENTRAL UPPER MICHIGAN

CITY           SKY/WX    TMP DP  RH WIND       PRES   REMARKS
MANISTIQUE     MOSUNNY   54  49  83 S6        29.88F
ESCANABA       SUNNY     60  54  80 S8        29.86F
MENOMINEE      SUNNY     66  56  70 SW8       29.87F
SAWYER-GWINN   SUNNY     63  57  82 S6        29.85F
$$
MIZ001>003-009>011-084-271500-
WESTERN UPPER MICHIGAN

CITY           SKY/WX    TMP DP  RH WIND       PRES   REMARKS
IRON MOUNTAIN  PTSUNNY   66  55  67 W6        29.83F
HOUGHTON       CLOUDY    64  55  72 W7        29.80S
COPPER HARBOR    N/A     57  51  80 N6        29.78F
IRONWOOD       SUNNY     64  53  67 W7        29.83S
$$

ABBREVIATIONS USED IN REMARKS
   TC - TEMPERATURE IN CELSIUS
  WCI - WIND CHILL INDEX
   HX - HEAT INDEX
  VSB - VISIBILITY





USA.gov is the U.S. government's official web portal to all federal, state and local government web resources and services.